Regional Weather Roundup
Issued by NWS

Home | Current Version | Previous Version | Text Only | Print | Product List | Glossary Off
Versions: 1 2 3 4 5 6 7 8 9 10 11 12 13 14 15 16 17 18 19 20 21 22 23 24 25 26 27 28 29 30 31 32 33 34 35 36 37 38 39 40 41 42 43 44 45 46 47 48 49 50

000
ASUS43 KDTX 031210
RWRMI
MICHIGAN HOURLY REGIONAL WEATHER ROUNDUP
NATIONAL WEATHER SERVICE DETROIT/PONTIAC MI
800 AM EDT SUN MAY 03 2015

NOTE: "FAIR" INDICATES FEW OR NO CLOUDS BELOW 12,000 FEET WITH NO
SIGNIFICANT WEATHER AND/OR OBSTRUCTION TO VISIBILITY.

MIZ047>049-052>055-059>063-066>070-074>076-081>083-031300-
SOUTHEAST LOWER MICHIGAN

CITY           SKY/WX    TMP DP  RH WIND       PRES   REMARKS
ADRIAN         SUNNY     52  43  71 W6        30.07R
6HR MIN TEMP:  47; 6HR MAX TEMP:  54;

ALMA           SUNNY     56  40  55 SW6       30.01R
ANN ARBOR      SUNNY     50  46  86 CALM      30.05R
BAD AXE        SUNNY     58  38  46 SW6       30.00R
CARO           MOSUNNY   54  44  68 CALM      30.00R
DETROIT CITY   SUNNY     59  42  53 SW7       30.04R
6HR MIN TEMP:  53; 6HR MAX TEMP:  59;

DETROIT        MOSUNNY   57  44  62 S5        30.06R
6HR MIN TEMP:  52; 6HR MAX TEMP:  58;

FLINT          MOSUNNY   60  41  49 SW8       30.03R
6HR MIN TEMP:  49; 6HR MAX TEMP:  60;

HILLSDALE      MOSUNNY   60  41  51 SW3       30.06R
6HR MIN TEMP:  57; 6HR MAX TEMP:  60;

HOWELL         SUNNY     57  42  56 SW5       30.04R
6HR MIN TEMP:  48; 6HR MAX TEMP:  57;


CITY           SKY/WX    TMP DP  RH WIND       PRES   REMARKS
JACKSON        SUNNY     59  42  53 SW7       30.05R
6HR MIN TEMP:  49; 6HR MAX TEMP:  59;

LAMBERTVILLE   SUNNY     55  43  62 SW3       30.07R
LANSING        SUNNY     58  41  53 SW10      30.04R
6HR MIN TEMP:  52; 6HR MAX TEMP:  58;

LAPEER         FAIR      50  47  88 CALM      30.03R
MASON          SUNNY     57  40  54 SW3       30.04R
MONROE         SUNNY     55  45  67 CALM      30.04R
MT. CLEMENS    MOSUNNY   60  42  51 SW7       30.01R
6HR MIN TEMP:  48; 6HR MAX TEMP:  60;

PONTIAC        MOSUNNY   56  43  61 SW5       30.04R
6HR MIN TEMP:  47; 6HR MAX TEMP:  56;

PORT HOPE        N/A     62  36  37 VRB6      29.97R
6HR MIN TEMP:  53; 6HR MAX TEMP:  62;

PORT HURON     SUNNY     52  46  82 S3        30.03R
TRI CITIES     PTSUNNY   58  40  51 SW7       30.00R
6HR MIN TEMP:  53; 6HR MAX TEMP:  59;

MIDLAND        FAIR      54  39  57 CALM      29.99R
TROY           SUNNY     56  40  55 SW3       30.05S
SAGINAW HB     CLOUDY    59  37  44 SW10      30.00R
$$
MIZ043>046-050>051-056>058-064>065-071>073-077>080-031300-
SOUTHWEST LOWER MICHIGAN

CITY           SKY/WX    TMP DP  RH WIND       PRES   REMARKS
BATTLE CREEK   SUNNY     56  42  59 SW7       30.05R
6HR MIN TEMP:  49; 6HR MAX TEMP:  57;

BENTON HARBOR  CLOUDY    57  41  55 S6        30.02R
6HR MIN TEMP:  52; 6HR MAX TEMP:  58;

BIG RAPIDS     SUNNY     52  41  66 S6        29.98R
6HR MIN TEMP:  50; 6HR MAX TEMP:  62;

COLDWATER      SUNNY     57  41  55 SW7       30.06R
6HR MIN TEMP:  52; 6HR MAX TEMP:  57;

FREMONT        FAIR      53  39  60 CALM      29.98R
HOLLAND        MOSUNNY   62  42  47 SW12      30.01R
6HR MIN TEMP:  53; 6HR MAX TEMP:  62;

GRAND RAPIDS   MOSUNNY   58  40  51 S9        30.01R
6HR MIN TEMP:  49; 6HR MAX TEMP:  58;

IONIA          FAIR      58  41  52 SW7       30.02R
KALAMAZOO      SUNNY     56  43  61 S6        30.05R
6HR MIN TEMP:  49; 6HR MAX TEMP:  56;

LUDINGTON      SUNNY     61  46  57 S6        29.95S
6HR MIN TEMP:  58; 6HR MAX TEMP:  64;

MARSHALL       SUNNY     57  43  57 CALM      30.05R
MOUNT PLEASANT PTSUNNY   60  38  44 SW5       29.98S
6HR MIN TEMP:  54; 6HR MAX TEMP:  60;

MUSKEGON       SUNNY     55  40  56 S8        29.99R
6HR MIN TEMP:  51; 6HR MAX TEMP:  65;

SOUTH HAVEN    PTSUNNY   59  41  51 S5        30.02R
$$
MIZ016>042-031300-
NORTHERN LOWER MICHIGAN

CITY           SKY/WX    TMP DP  RH WIND       PRES   REMARKS
ALPENA         SUNNY     59  37  44 SW6       29.94R
6HR MIN TEMP:  45; 6HR MAX TEMP:  59;

BEAVER ISLAND  SUNNY     57  42  57 SW9       29.89R
6HR MIN TEMP:  55; 6HR MAX TEMP:  60;

BELLAIRE       SUNNY     53  44  70 CALM      29.93R
6HR MIN TEMP:  44; 6HR MAX TEMP:  53;

CADILLAC       MOSUNNY   46  40  79 CALM      29.97R
CHARLEVOIX     SUNNY     60  39  46 S9        29.94R
FRANKFORT      SUNNY     62  39  42 S6        29.93R
GAYLORD        SUNNY     57  38  48 S3        29.94R
6HR MIN TEMP:  53; 6HR MAX TEMP:  58;

GRAYLING       SUNNY     53  39  58 CALM      29.96R
6HR MIN TEMP:  45; 6HR MAX TEMP:  57;

HARBOR SPRINGS MOSUNNY   57  42  56 CALM      29.91R
HOUGHTON LAKE  SUNNY     58  37  45 SW8       29.97R
6HR MIN TEMP:  53; 6HR MAX TEMP:  58;

MANISTEE       SUNNY     50  39  66 E5        29.95S
OSCODA         SUNNY     55  39  55 SW9       29.96R
PELLSTON       MOSUNNY   64  41  42 SW10      29.90R
6HR MIN TEMP:  46; 6HR MAX TEMP:  64;

ROGERS CITY    MOSUNNY   58  39  49 SW7       29.92R
TRAVERSE CITY  MOSUNNY   61  38  42 VRB5      29.92R
6HR MIN TEMP:  58; 6HR MAX TEMP:  63;

$$
MIZ007>008-015-031300-
EASTERN UPPER MICHIGAN

CITY           SKY/WX    TMP DP  RH WIND       PRES   REMARKS
KINROSS        SUNNY     52  39  62 S5        29.88R
6HR MIN TEMP:  43; 6HR MAX TEMP:  52;

MACKINAC ISLAN SUNNY     54  41  61 SW5       29.89R
6HR MIN TEMP:  42; 6HR MAX TEMP:  55;

NEWBERRY       SUNNY     46  37  71 S10G17    29.86R
S. S. MARIE    SUNNY     48  39  71 E3        29.88R
6HR MIN TEMP:  45; 6HR MAX TEMP:  49;

MUNISING         N/A     59  43  55 S10       29.81R
6HR MIN TEMP:  54; 6HR MAX TEMP:  59;

$$
MIZ004>006-011>014-085-031300-
CENTRAL UPPER MICHIGAN

CITY           SKY/WX    TMP DP  RH WIND       PRES   REMARKS
MANISTIQUE     SUNNY     42  37  83 S6        29.86R
6HR MIN TEMP:  39; 6HR MAX TEMP:  45;

ESCANABA       MOSUNNY   54  45  71 S8        29.85R
6HR MIN TEMP:  39; 6HR MAX TEMP:  54;

MENOMINEE      SUNNY     57  45  62 SW6       29.86S
6HR MIN TEMP:  55; 6HR MAX TEMP:  59;

SAWYER-GWINN   MOSUNNY   54  43  66 S9        29.82R
$$
MIZ001>003-009>011-084-031300-
WESTERN UPPER MICHIGAN

CITY           SKY/WX    TMP DP  RH WIND       PRES   REMARKS
IRON MOUNTAIN  SUNNY     55  47  74 SE5       29.83R
6HR MIN TEMP:  53; 6HR MAX TEMP:  63;

HOUGHTON       PTSUNNY   58  47  66 S7        29.74R
6HR MIN TEMP:  50; 6HR MAX TEMP:  58;

COPPER HARBOR    N/A     62  46  55 W13G24    29.71R
6HR MIN TEMP:  55; 6HR MAX TEMP:  62;

IRONWOOD       MOSUNNY   61  50  67 SW12      29.74F
6HR MIN TEMP:  61; 6HR MAX TEMP:  64;

$$

ABBREVIATIONS USED IN REMARKS
   TC - TEMPERATURE IN CELSIUS
  WCI - WIND CHILL INDEX
   HX - HEAT INDEX
  VSB - VISIBILITY




USA.gov is the U.S. government's official web portal to all federal, state and local government web resources and services.